Time,TemperatureF,DewpointF,PressureIn,WindDirection,WindDirectionDegrees,WindSpeedMPH,WindSpeedGustMPH,Humidity,HourlyPrecipIn,Conditions,Clouds,dailyrainin,SoftwareType,DateUTC
2013-01-06 00:12:00,2.6,-5.0,30.74,SSW,201,0.0,-999.0,70,-99.99,,,0.00,weatherlink.com 1.10,2013-01-06 07:12:00,
2013-01-06 00:27:00,2.2,-6.0,30.71,SSW,201,0.0,-999.0,70,-99.99,,,0.00,weatherlink.com 1.10,2013-01-06 07:27:00,
2013-01-06 00:43:00,2.0,-6.0,30.70,SSW,201,0.0,-999.0,70,-99.99,,,0.00,weatherlink.com 1.10,2013-01-06 07:43:00,
2013-01-06 00:58:00,2.0,-6.0,30.70,SSW,201,0.0,-999.0,70,-99.99,,,0.00,weatherlink.com 1.10,2013-01-06 07:58:00,
2013-01-06 01:13:00,2.0,-6.0,30.70,SSW,201,0.0,-999.0,70,-99.99,,,0.00,weatherlink.com 1.10,2013-01-06 08:13:00,
2013-01-06 01:28:00,1.8,-6.0,30.68,SSW,201,0.0,-999.0,70,-99.99,,,0.00,weatherlink.com 1.10,2013-01-06 08:28:00,
2013-01-06 01:43:00,1.8,-6.0,30.68,SSW,201,0.0,-999.0,71,-99.99,,,0.00,weatherlink.com 1.10,2013-01-06 08:43:00,
2013-01-06 01:58:00,1.3,-6.0,30.68,SSW,201,0.0,-999.0,70,-99.99,,,0.00,weatherlink.com 1.10,2013-01-06 08:58:00,
2013-01-06 02:13:00,0.9,-7.0,30.69,SSW,201,0.0,-999.0,70,-99.99,,,0.00,weatherlink.com 1.10,2013-01-06 09:13:00,
2013-01-06 02:28:00,0.7,-7.0,30.69,SSW,201,0.0,-999.0,71,-99.99,,,0.00,weatherlink.com 1.10,2013-01-06 09:28:00,
2013-01-06 02:43:00,0.7,-7.0,30.70,SSW,201,0.0,-999.0,71,-99.99,,,0.00,weatherlink.com 1.10,2013-01-06 09:43:00,
2013-01-06 02:58:00,0.7,-7.0,30.70,SSW,201,0.0,-999.0,71,-99.99,,,0.00,weatherlink.com 1.10,2013-01-06 09:58:00,
2013-01-06 03:13:00,0.5,-7.0,30.69,SSW,201,0.0,-999.0,72,-99.99,,,0.00,weatherlink.com 1.10,2013-01-06 10:13:00,
2013-01-06 03:28:00,1.1,-6.0,30.69,SSW,201,0.0,-999.0,72,-99.99,,,0.00,weatherlink.com 1.10,2013-01-06 10:28:00,
2013-01-06 03:43:00,0.9,-6.0,30.68,SSW,201,0.0,-999.0,71,-99.99,,,0.00,weatherlink.com 1.10,2013-01-06 10:43:00,
2013-01-06 03:59:00,0.7,-7.0,30.68,SSW,201,0.0,-999.0,71,-99.99,,,0.00,weatherlink.com 1.10,2013-01-06 10:59:00,
2013-01-06 04:14:00,0.5,-7.0,30.68,SSW,201,0.0,-999.0,71,-99.99,,,0.00,weatherlink.com 1.10,2013-01-06 11:14:00,
2013-01-06 04:29:00,0.0,-7.0,30.69,SSW,201,0.0,-999.0,71,-99.99,,,0.00,weatherlink.com 1.10,2013-01-06 11:29:00,
2013-01-06 04:44:00,0.1,-7.0,30.70,SSW,201,0.0,-999.0,72,-99.99,,,0.00,weatherlink.com 1.10,2013-01-06 11:44:00,
2013-01-06 04:59:00,-0.4,-8.0,30.69,SSW,201,0.0,-999.0,71,-99.99,,,0.00,weatherlink.com 1.10,2013-01-06 11:59:00,
2013-01-06 05:14:00,-0.6,-8.0,30.69,SSW,201,0.0,-999.0,71,-99.99,,,0.00,weatherlink.com 1.10,2013-01-06 12:14:00,
2013-01-06 05:29:00,-0.6,-8.0,30.72,SSW,201,0.0,-999.0,72,-99.99,,,0.00,weatherlink.com 1.10,2013-01-06 12:29:00,
2013-01-06 05:44:00,-0.4,-7.0,30.72,SSW,201,0.0,-999.0,72,-99.99,,,0.00,weatherlink.com 1.10,2013-01-06 12:44:00,
2013-01-06 05:59:00,-0.4,-7.0,30.71,SSW,201,0.0,-999.0,72,-99.99,,,0.00,weatherlink.com 1.10,2013-01-06 12:59:00,
2013-01-06 06:14:00,0.0,-7.0,30.71,SSW,201,0.0,-999.0,72,-99.99,,,0.00,weatherlink.com 1.10,2013-01-06 13:14:00,
2013-01-06 06:29:00,-0.4,-7.0,30.73,SSW,201,0.0,-999.0,72,-99.99,,,0.00,weatherlink.com 1.10,2013-01-06 13:29:00,
2013-01-06 06:44:00,-0.6,-8.0,30.73,SSW,201,0.0,-999.0,72,-99.99,,,0.00,weatherlink.com 1.10,2013-01-06 13:44:00,
2013-01-06 06:59:00,-0.6,-8.0,30.75,SSW,201,0.0,-999.0,71,-99.99,,,0.00,weatherlink.com 1.10,2013-01-06 13:59:00,
2013-01-06 07:14:00,-0.2,-8.0,30.74,SSW,201,0.0,-999.0,71,-99.99,,,0.00,weatherlink.com 1.10,2013-01-06 14:14:00,
2013-01-06 07:30:00,-0.8,-8.0,30.74,SSW,201,0.0,-999.0,71,-99.99,,,0.00,weatherlink.com 1.10,2013-01-06 14:30:00,
2013-01-06 07:45:00,-0.4,-7.0,30.75,SSW,201,0.0,-999.0,72,-99.99,,,0.00,weatherlink.com 1.10,2013-01-06 14:45:00,
2013-01-06 08:00:00,0.1,-7.0,30.74,South,191,0.0,-999.0,72,-99.99,,,0.00,weatherlink.com 1.10,2013-01-06 15:00:00,
2013-01-06 08:15:00,1.3,-6.0,30.74,South,191,0.0,-999.0,72,-99.99,,,0.00,weatherlink.com 1.10,2013-01-06 15:15:00,
2013-01-06 08:30:00,2.0,-5.0,30.74,South,191,0.0,-999.0,71,-99.99,,,0.00,weatherlink.com 1.10,2013-01-06 15:30:00,
2013-01-06 08:45:00,3.2,-5.0,30.73,South,191,0.0,-999.0,70,-99.99,,,0.00,weatherlink.com 1.10,2013-01-06 15:45:00,
2013-01-06 09:00:00,4.1,-4.0,30.73,South,191,0.0,-999.0,70,-99.99,,,0.00,weatherlink.com 1.10,2013-01-06 16:00:00,
2013-01-06 09:15:00,4.8,-4.0,30.73,South,191,0.0,-999.0,68,-99.99,,,0.00,weatherlink.com 1.10,2013-01-06 16:15:00,
2013-01-06 09:30:00,6.1,-2.0,30.73,South,191,0.0,-999.0,68,-99.99,,,0.00,weatherlink.com 1.10,2013-01-06 16:30:00,
2013-01-06 09:45:00,7.4,-2.0,30.71,SSW,192,1.0,-999.0,65,-99.99,,,0.00,weatherlink.com 1.10,2013-01-06 16:45:00,
2013-01-06 10:00:00,7.7,-2.0,30.71,SSW,192,0.0,-999.0,65,-99.99,,,0.00,weatherlink.com 1.10,2013-01-06 17:00:00,
2013-01-06 10:15:00,9.5,-1.0,30.70,SSW,192,0.0,-999.0,62,-99.99,,,0.00,weatherlink.com 1.10,2013-01-06 17:15:00,
2013-01-06 10:30:00,10.4,0.0,30.69,SW,217,1.0,-999.0,62,-99.99,,,0.00,weatherlink.com 1.10,2013-01-06 17:30:00,
2013-01-06 10:45:00,11.2,0.0,30.68,SW,217,0.0,-999.0,60,-99.99,,,0.00,weatherlink.com 1.10,2013-01-06 17:45:00,
2013-01-06 11:01:00,11.6,0.0,30.66,SW,217,0.0,-999.0,60,-99.99,,,0.00,weatherlink.com 1.10,2013-01-06 18:01:00,
2013-01-06 11:16:00,12.4,0.0,30.67,SW,217,0.0,-999.0,59,-99.99,,,0.00,weatherlink.com 1.10,2013-01-06 18:16:00,
2013-01-06 11:31:00,13.3,1.0,30.64,NNW,344,0.0,-999.0,58,-99.99,,,0.00,weatherlink.com 1.10,2013-01-06 18:31:00,
2013-01-06 11:46:00,14.4,2.0,30.62,South,186,1.0,-999.0,57,-99.99,,,0.00,weatherlink.com 1.10,2013-01-06 18:46:00,
2013-01-06 12:01:00,15.4,2.0,30.60,South,187,0.0,-999.0,56,-99.99,,,0.00,weatherlink.com 1.10,2013-01-06 19:01:00,
2013-01-06 12:16:00,17.0,3.0,30.59,South,181,1.0,-999.0,54,-99.99,,,0.00,weatherlink.com 1.10,2013-01-06 19:16:00,
2013-01-06 12:31:00,18.0,3.0,30.57,South,181,0.0,-999.0,52,-99.99,,,0.00,weatherlink.com 1.10,2013-01-06 19:31:00,
2013-01-06 12:46:00,17.5,3.0,30.55,North,355,2.0,-999.0,52,-99.99,,,0.00,weatherlink.com 1.10,2013-01-06 19:46:00,
2013-01-06 13:16:00,18.6,4.0,30.54,NNW,331,0.0,-999.0,52,-99.99,,,0.00,weatherlink.com 1.10,2013-01-06 20:16:00,
2013-01-06 13:31:00,20.0,4.0,30.53,NNW,331,0.0,-999.0,51,-99.99,,,0.00,weatherlink.com 1.10,2013-01-06 20:31:00,
2013-01-06 13:46:00,20.5,4.0,30.50,NNW,331,0.0,-999.0,49,-99.99,,,0.00,weatherlink.com 1.10,2013-01-06 20:46:00,
2013-01-06 14:01:00,21.0,4.0,30.49,NNW,331,0.0,-999.0,49,-99.99,,,0.00,weatherlink.com 1.10,2013-01-06 21:01:00,
2013-01-06 14:16:00,19.9,4.0,30.48,West,267,0.0,-999.0,50,-99.99,,,0.00,weatherlink.com 1.10,2013-01-06 21:16:00,
2013-01-06 14:32:00,20.0,4.0,30.48,West,267,0.0,-999.0,50,-99.99,,,0.00,weatherlink.com 1.10,2013-01-06 21:32:00,
2013-01-06 14:47:00,20.2,5.0,30.48,West,267,0.0,-999.0,52,-99.99,,,0.00,weatherlink.com 1.10,2013-01-06 21:47:00,
2013-01-06 15:02:00,21.0,5.0,30.46,West,259,0.0,-999.0,50,-99.99,,,0.00,weatherlink.com 1.10,2013-01-06 22:02:00,
2013-01-06 15:17:00,21.8,5.0,30.45,West,261,0.0,-999.0,48,-99.99,,,0.00,weatherlink.com 1.10,2013-01-06 22:17:00,
2013-01-06 15:32:00,21.1,5.0,30.45,NW,323,1.0,-999.0,51,-99.99,,,0.00,weatherlink.com 1.10,2013-01-06 22:32:00,
2013-01-06 15:47:00,20.8,5.0,30.46,North,5,1.0,-999.0,51,-99.99,,,0.00,weatherlink.com 1.10,2013-01-06 22:47:00,
2013-01-06 16:02:00,20.6,5.0,30.46,North,9,0.0,-999.0,51,-99.99,,,0.00,weatherlink.com 1.10,2013-01-06 23:02:00,
2013-01-06 16:17:00,20.3,5.0,30.48,North,9,0.0,-999.0,52,-99.99,,,0.00,weatherlink.com 1.10,2013-01-06 23:17:00,
2013-01-06 16:32:00,20.2,6.0,30.48,North,9,0.0,-999.0,54,-99.99,,,0.00,weatherlink.com 1.10,2013-01-06 23:32:00,
2013-01-06 16:47:00,19.7,6.0,30.46,North,9,0.0,-999.0,55,-99.99,,,0.00,weatherlink.com 1.10,2013-01-06 23:47:00,
2013-01-06 17:02:00,19.7,5.0,30.47,North,9,0.0,-999.0,54,-99.99,,,0.00,weatherlink.com 1.10,2013-01-07 00:02:00,
2013-01-06 17:17:00,19.4,6.0,30.47,North,9,1.0,-999.0,56,-99.99,,,0.00,weatherlink.com 1.10,2013-01-07 00:17:00,
2013-01-06 17:32:00,18.6,5.0,30.49,North,360,3.0,-999.0,55,-99.99,,,0.00,weatherlink.com 1.10,2013-01-07 00:32:00,
2013-01-06 17:48:00,18.0,5.0,30.49,North,360,0.0,-999.0,57,-99.99,,,0.00,weatherlink.com 1.10,2013-01-07 00:48:00,
2013-01-06 18:03:00,17.3,5.0,30.48,North,360,0.0,-999.0,59,-99.99,,,0.00,weatherlink.com 1.10,2013-01-07 01:03:00,
2013-01-06 18:18:00,16.9,4.0,30.48,North,360,0.0,-999.0,58,-99.99,,,0.00,weatherlink.com 1.10,2013-01-07 01:18:00,
2013-01-06 18:33:00,16.5,5.0,30.48,North,360,1.0,-999.0,60,-99.99,,,0.00,weatherlink.com 1.10,2013-01-07 01:33:00,
2013-01-06 18:48:00,15.9,4.0,30.49,North,360,0.0,-999.0,60,-99.99,,,0.00,weatherlink.com 1.10,2013-01-07 01:48:00,
2013-01-06 19:03:00,14.9,4.0,30.48,North,360,0.0,-999.0,63,-99.99,,,0.00,weatherlink.com 1.10,2013-01-07 02:03:00,
2013-01-06 19:18:00,14.0,4.0,30.49,North,360,0.0,-999.0,64,-99.99,,,0.00,weatherlink.com 1.10,2013-01-07 02:18:00,
2013-01-06 19:33:00,13.6,4.0,30.48,North,360,1.0,-999.0,66,-99.99,,,0.00,weatherlink.com 1.10,2013-01-07 02:33:00,
2013-01-06 19:48:00,13.5,4.0,30.48,North,360,0.0,-999.0,65,-99.99,,,0.00,weatherlink.com 1.10,2013-01-07 02:48:00,
2013-01-06 20:03:00,12.6,3.0,30.49,North,360,0.0,-999.0,66,-99.99,,,0.00,weatherlink.com 1.10,2013-01-07 03:03:00,
2013-01-06 20:18:00,12.4,3.0,30.48,North,360,0.0,-999.0,67,-99.99,,,0.00,weatherlink.com 1.10,2013-01-07 03:18:00,
2013-01-06 20:33:00,12.3,3.0,30.48,North,360,0.0,-999.0,67,-99.99,,,0.00,weatherlink.com 1.10,2013-01-07 03:33:00,
2013-01-06 20:48:00,11.4,2.0,30.48,North,360,0.0,-999.0,67,-99.99,,,0.00,weatherlink.com 1.10,2013-01-07 03:48:00,
2013-01-06 21:03:00,11.2,3.0,30.49,North,360,0.0,-999.0,68,-99.99,,,0.00,weatherlink.com 1.10,2013-01-07 04:03:00,
2013-01-06 21:19:00,10.4,2.0,30.47,North,360,0.0,-999.0,68,-99.99,,,0.00,weatherlink.com 1.10,2013-01-07 04:19:00,
2013-01-06 21:34:00,9.7,1.0,30.47,North,360,0.0,-999.0,69,-99.99,,,0.00,weatherlink.com 1.10,2013-01-07 04:34:00,
2013-01-06 21:49:00,9.3,1.0,30.48,North,360,0.0,-999.0,70,-99.99,,,0.00,weatherlink.com 1.10,2013-01-07 04:49:00,
2013-01-06 22:04:00,8.8,1.0,30.48,North,360,0.0,-999.0,70,-99.99,,,0.00,weatherlink.com 1.10,2013-01-07 05:04:00,
2013-01-06 22:19:00,8.3,0.0,30.46,North,360,0.0,-999.0,70,-99.99,,,0.00,weatherlink.com 1.10,2013-01-07 05:19:00,
2013-01-06 22:34:00,7.7,0.0,30.46,North,360,0.0,-999.0,70,-99.99,,,0.00,weatherlink.com 1.10,2013-01-07 05:34:00,
2013-01-06 22:49:00,7.7,0.0,30.46,ESE,102,1.0,-999.0,70,-99.99,,,0.00,weatherlink.com 1.10,2013-01-07 05:49:00,
2013-01-06 23:04:00,8.1,0.0,30.46,ESE,104,0.0,-999.0,70,-99.99,,,0.00,weatherlink.com 1.10,2013-01-07 06:04:00,
2013-01-06 23:19:00,7.9,0.0,30.45,ESE,104,1.0,-999.0,69,-99.99,,,0.00,weatherlink.com 1.10,2013-01-07 06:19:00,
2013-01-06 23:34:00,7.2,-1.0,30.45,ESE,104,0.0,-999.0,69,-99.99,,,0.00,weatherlink.com 1.10,2013-01-07 06:34:00,
2013-01-06 23:49:00,6.7,-1.0,30.45,ESE,104,0.0,-999.0,70,-99.99,,,0.00,weatherlink.com 1.10,2013-01-07 06:49:00,